Regional Weather Roundup
Issued by NWS

Home | Current Version | Previous Version | Text Only | Print | Product List | Glossary Off
Versions: 1 2 3 4 5 6 7 8 9 10 11 12 13 14 15 16 17 18 19 20 21 22 23 24 25 26 27 28 29 30 31 32 33 34 35 36 37 38 39 40 41 42 43 44 45 46 47 48 49 50

614
ASUS43 KFSD 190210
RWRSD

WEATHER ROUNDUP FOR SOUTH DAKOTA
NATIONAL WEATHER SERVICE SIOUX FALLS SD
800 PM CST SAT FEB 18 2017

NOTE: "FAIR" INDICATES FEW OR NO CLOUDS BELOW 12,000 FEET WITH NO
SIGNIFICANT WEATHER AND/OR OBSTRUCTIONS TO VISIBILITY.


SDZ001>005-009-010-012>017-190300-
NORTHWEST AND NORTH CENTRAL SOUTH DAKOTA

CITY           SKY/WX    TMP DP  RH WIND       PRES   REMARKS
BUFFALO          N/A     47  33  58 NE7       29.53S
FAITH            N/A     47  34  60 S13       29.60R
MOBRIDGE       CLEAR     41  32  70 SE8       29.62F
$$

SDZ012>016-024>037-041>051-057-063-072>074-190300-
SOUTHWEST AND SOUTH CENTRAL SOUTH DAKOTA

CITY           SKY/WX    TMP DP  RH WIND       PRES   REMARKS
RAPID CTY ARPT CLEAR     47  30  51 E7        29.59S
PIERRE         CLEAR     47  34  60 SE16      29.64S
CUSTER         CLOUDY    46  24  42 SW3       29.67S
ELLSWORTH AFB  CLEAR     54  31  42 S9        29.58F
PHILIP         PTCLDY    49  33  54 E6        29.61R
PINE RIDGE     CLEAR     51  31  46 S18       29.64S
SPEARFISH      MOCLDY    50  30  46 S10       29.61S
WINNER         FAIR      51  31  46 S12       29.69R
$$

SDZ004>011-016>023-039-040-190300-
NORTHEAST SOUTH DAKOTA

CITY           SKY/WX    TMP DP  RH WIND       PRES   REMARKS
ABERDEEN       CLEAR     37  33  85 NE6       29.72R
WATERTOWN      CLEAR     36  35  96 CALM      29.77S
BROOKINGS      CLOUDY    44  38  79 SE7       29.78F
SISSETON         N/A     40  37  89 S10       29.75F
$$

SDZ017-020-022-023-036>040-048>070-190300-
SOUTHEAST SOUTH DAKOTA

CITY           SKY/WX    TMP DP  RH WIND       PRES   REMARKS
SIOUX FALLS    CLOUDY    41  38  89 CALM      29.80R
HURON          CLEAR     46  38  73 SE13      29.72F
CHAMBERLAIN    CLEAR     45  38  77 SE9       29.70F
MITCHELL       CLEAR     47  39  74 SE13      29.75F
YANKTON        CLOUDY    50  34  53 SE5       29.78S
$$

ABBREVIATIONS USED IN REMARKS
   TC - TEMPERATURE IN CELSIUS
  WCI - WIND CHILL INDEX
   HX - HEAT INDEX
  VSB - VISIBILITY





USA.gov is the U.S. government's official web portal to all federal, state and local government web resources and services.